Burlington, CO

7:43 PM MDT on July 27, 2017 (GMT -0600)
Kit Carson County

Weather History for KITR - September, 2013

Change the Weather History Date:

Wednesday, September 25, 2013

  Actual Average Record
Temperature  
Mean Temperature 67 °F 60 °F  
Max Temperature 85 °F 75 °F 95 °F (1998)
Min Temperature 48 °F 44 °F 26 °F (1926)
Cooling Degree Days 1    
Growing Degree Days 16 (Base 50)    
Moisture  
Dew Point 41 °F    
Average Humidity 43    
Maximum Humidity 77    
Minimum Humidity 17    
Precipitation  
Precipitation 0.00 in 0.02 in 0.45 in (1955)
Month to date precipitation 5.30 0.96  
Year to date precipitation 15.75 15.11  
Sea Level Pressure  
Sea Level Pressure 29.60 in    
Wind  
Wind Speed 16 mph (South)    
Max Wind Speed 23 mph    
Max Gust Speed 32 mph    
Visibility 10 miles    
Events      
T = Trace of Precipitation, MM = Missing Value Source: NWS Daily Summary

Daily Weather History Graph

Daily Weather History Graph

Search for Another Location

Airport or City:

Trip Planner

Search our weather history database for the weather conditions in past years. The results will help you decide how hot, cold, wet, or windy it might be!

Date:

Astronomy

Sep. 25, 2013 Rise Set
Actual Time 6:39 AM MDT 6:40 PM MDT
Civil Twilight 6:13 AM MDT 7:07 PM MDT
Nautical Twilight 5:41 AM MDT 7:38 PM MDT
Astronomical Twilight 5:10 AM MDT 8:10 PM MDT
Moon 10:51 PM MDT (9/25) 12:45 PM MDT (9/25)
Length of Visible Light 12h 54m
Length of Day
12h 01m
Waning Gibbous, 63% of the Moon is Illuminated
Sep 25
Waning Gibbous
Sep 26
Last Quarter
Oct 4
New
Oct 11
First Quarter
Oct 18
Full

Hourly Weather History & Observations

Time (MDT) Temp. Dew Point Humidity Pressure Visibility Wind Dir Wind Speed Gust Speed Precip Events Conditions
12:53 AM 55.0 °F 37.9 °F 53% 29.80 in 10.0 mi South 16.1 mph - N/A   Clear
1:53 AM 55.0 °F 37.0 °F 51% 29.78 in 10.0 mi SSE 15.0 mph - N/A   Clear
2:53 AM 54.0 °F 37.9 °F 55% 29.75 in 10.0 mi SSE 15.0 mph - N/A   Clear
3:53 AM 52.0 °F 39.9 °F 63% 29.73 in 10.0 mi SSE 12.7 mph - N/A   Clear
4:53 AM 50.0 °F 39.9 °F 68% 29.73 in 10.0 mi SSE 13.8 mph - N/A   Clear
5:53 AM 48.9 °F 41.0 °F 74% 29.72 in 10.0 mi SSE 12.7 mph - N/A   Clear
6:53 AM 48.0 °F 41.0 °F 77% 29.74 in 10.0 mi SSE 12.7 mph - N/A   Clear
7:53 AM 52.0 °F 43.0 °F 71% 29.73 in 10.0 mi SSE 15.0 mph - N/A   Clear
8:53 AM 59.0 °F 45.0 °F 60% 29.70 in 10.0 mi South 15.0 mph - N/A   Clear
9:53 AM 66.0 °F 46.9 °F 50% 29.68 in 10.0 mi South 13.8 mph - N/A   Clear
10:53 AM 73.9 °F 46.0 °F 37% 29.65 in 10.0 mi South 15.0 mph 20.7 mph N/A   Clear
11:53 AM 75.9 °F 45.0 °F 33% 29.61 in 10.0 mi South 13.8 mph 21.9 mph N/A   Clear
12:53 PM 80.1 °F 45.0 °F 29% 29.55 in 10.0 mi South 19.6 mph 27.6 mph N/A   Clear
1:53 PM 82.0 °F 41.0 °F 23% 29.53 in 10.0 mi SSW 23.0 mph 29.9 mph N/A   Clear
2:53 PM 84.0 °F 37.9 °F 19% 29.49 in 10.0 mi South 17.3 mph 26.5 mph N/A   Clear
3:53 PM 84.9 °F 36.0 °F 17% 29.46 in 10.0 mi South 23.0 mph 32.2 mph N/A   Clear
4:53 PM 82.9 °F 37.0 °F 19% 29.47 in 10.0 mi South 21.9 mph 31.1 mph N/A   Clear
5:53 PM 81.0 °F 39.9 °F 23% 29.48 in 10.0 mi South 18.4 mph 25.3 mph N/A   Clear
6:53 PM 77.0 °F 41.0 °F 28% 29.47 in 10.0 mi South 19.6 mph 28.8 mph N/A   Clear
7:53 PM 72.0 °F 42.1 °F 34% 29.47 in 10.0 mi SSE 18.4 mph 24.2 mph N/A   Clear
8:53 PM 69.1 °F 42.1 °F 38% 29.47 in 10.0 mi South 16.1 mph 24.2 mph N/A   Clear
9:53 PM 69.1 °F 42.1 °F 38% 29.45 in 10.0 mi South 16.1 mph - N/A   Clear
10:53 PM 69.1 °F 43.0 °F 39% 29.44 in 10.0 mi South 18.4 mph 26.5 mph N/A   Clear
11:53 PM 66.9 °F 44.1 °F 44% 29.45 in 10.0 mi South 15.0 mph - N/A   Clear